Вернуться в каталог

INTELSAT 511

АктивенСвязьGEO
NORAD 15873·PAYLOAD· XX

Запущен Jun 30, 1985 с Cape Canaveral Space Force Station

Loading…

TLE

СвежийSource: Space-Track

Эпоха: Sep 13, 2026, 17:37 UTC

1 15873U 85055A   26256.73410120 -.00000047  00000-0  00000-0 0  9998
2 15873  13.1218 338.1035 0011041 114.5437 236.5436  1.00071751125398

Отслеживайте INTELSAT 511 в реальном времени с AllMySat

Download on the App Store